Probability
7 8 9 9 7 7 9 9 7 8 10 11 10 8 7 7 5 4 2 1 0 0 0 0 0 0 0 1 0 0 0 0 0 0 0 0 0 0 0 0 0 0 0
6 7 7 6 5 6 7 7 6 7 9 9 8 6 6 6 5 4 2 1 0 0 0 0 0 0 1 2 1 0 0 0 0 0 0 0 0 0 0 0 0 0 0
6 5 5 3 2 2 4 5 6 7 7 7 6 5 5 5 5 4 2 1 0 0 0 1 1 2 3 3 2 1 0 0 0 0 0 0 0 0 0 0 0 0 0
5 4 3 2 1 1 2 3 4 5 6 5 5 6 5 4 4 3 2 1 0 0 0 1 2 3 4 4 2 1 0 0 0 0 0 0 0 0 0 0 0 0 0
4 3 2 1 1 1 1 1 2 3 4 3 3 4 4 4 3 2 1 0 0 0 0 0 1 2 3 3 2 1 0 0 0 0 0 0 0 0 0 0 0 0 0
3 3 2 1 0 1 1 0 1 2 3 2 1 2 3 3 2 1 0 0 0 0 0 0 0 1 1 2 2 1 0 0 0 0 0 0 0 0 0 0 0 0 0
3 3 2 1 0 0 1 0 0 1 2 2 1 1 2 2 2 1 0 0 0 0 0 0 0 0 0 1 1 1 0 0 0 0 0 0 0 0 0 0 0 0 0
4 2 1 1 0 0 0 0 0 1 2 3 1 1 2 2 1 0 0 0 0 0 0 0 0 0 0 0 0 0 0 0 0 0 0 0 0 0 0 0 0 0 0
4 2 0 0 0 0 0 0 0 1 2 3 2 1 2 3 1 0 0 0 0 0 0 0 0 0 0 0 0 0 0 0 0 0 0 0 0 0 0 0 0 0 0
4 1 0 0 0 0 0 0 0 1 3 4 3 1 2 2 1 0 0 0 0 0 0 0 0 0 0 0 0 0 0 0 0 0 0 0 0 0 0 0 0 0 0
3 1 0 0 0 0 0 0 0 1 2 4 3 1 1 1 1 1 0 0 0 0 0 0 0 0 0 0 0 0 0 0 0 0 0 0 0 0 0 0 0 0 0
3 2 1 0 0 0 0 0 0 0 1 3 3 2 1 0 0 1 1 0 0 0 0 0 0 0 0 0 0 0 0 0 0 0 0 0 0 0 0 0 0 0 0
3 2 1 0 0 0 0 0 0 0 1 2 3 3 2 1 0 1 1 0 0 0 0 0 0 0 0 0 0 0 0 0 0 0 0 0 0 0 0 0 0 0 0
3 2 1 0 0 0 0 0 0 0 1 2 3 3 2 1 0 0 0 0 0 0 0 0 0 0 0 0 0 0 0 0 0 0 0 0 0 0 0 0 0 0 0
2 2 1 0 0 0 0 0 0 0 1 2 3 3 2 1 0 0 0 0 0 0 0 0 0 0 0 0 0 0 0 0 0 0 0 0 0 0 0 0 0 0 0
1 1 1 0 0 0 0 0 0 0 1 2 3 2 1 0 0 0 0 0 0 0 0 0 0 0 0 0 0 0 0 0 0 0 0 0 0 0 0 0 0 0 0
0 0 0 0 0 0 0 0 0 0 1 2 3 1 0 0 0 0 0 0 0 0 0 0 0 0 0 0 0 0 0 0 0 0 0 0 0 0 0 0 0 0 0
0 0 0 0 0 0 0 0 0 0 1 2 2 1 0 0 0 0 0 0 0 0 0 0 0 0 0 0 0 0 0 0 0 0 0 0 0 0 0 0 0 0 0
0 0 0 0 0 0 0 0 0 0 1 1 1 0 0 0 0 0 0 0 0 0 0 0 0 0 0 0 0 0 0 0 0 0 0 0 0 0 0 0 0 0 0
0 0 0 0 0 0 0 0 0 0 0 0 0 0 0 0 0 0 0 0 0 0 0 0 0 0 0 0 0 0 0 0 0 0 0 0 0 0 0 0 0 0 0
0 0 0 0 0 0 0 0 0 0 0 0 0 0 0 0 0 0 0 0 0 0 0 0 0 0 0 0 0 0 0 0 0 0 0 0 0 0 0 0 0 0 0
0 0 0 0 0 0 0 0 0 0 0 0 0 0 0 0 0 0 0 0 0 0 0 0 0 0 0 0 0 0 0 0 0 0 0 0 0 0 0 0 0 0 0
0 0 0 0 0 0 0 0 0 0 0 0 0 0 0 0 0 0 0 0 0 0 0 0 0 0 0 0 0 0 0 0 0 0 0 0 0 0 0 0 0 0 0
0 0 0 0 0 0 0 0 0 0 0 0 0 0 0 0 0 0 0 0 0 0 0 0 0 0 0 0 0 0 0 0 0 0 0 0 0 0 0 0 0 0 0
0 0 0 0 0 0 0 0 0 0 0 0 0 0 0 0 0 0 0 0 0 0 0 0 0 0 0 0 0 0 0 0 0 0 0 0 0 0 0 0 0 0 0
0 0 0 0 0 0 0 0 0 0 0 0 0 0 0 0 0 0 0 0 0 0 0 0 0 0 0 0 0 0 0 0 0 0 0 0 0 0 0 0 0 0 0
Wind_Speed
3 3 3 4 4 4 5 5 6 7 8 9 9 10 11 11 10 8 7 11 12 13 14 14 14 14 13 12 11 10 9 8 6 5 4 3 2 1 1 1 2 3 5
3 4 4 4 4 4 5 6 7 7 7 7 9 10 10 11 10 10 8 10 11 12 14 15 15 14 13 13 12 10 9 8 7 6 4 3 2 1 0 1 2 4 5
4 3 4 4 4 4 5 5 7 6 6 7 9 10 9 10 10 10 10 8 10 11 12 14 15 15 14 13 12 11 10 9 8 6 5 4 3 2 1 2 3 4 5
5 4 4 4 4 4 4 5 6 6 6 7 7 7 7 7 10 10 9 9 8 9 11 12 13 15 14 13 13 12 11 10 9 7 6 5 4 3 2 3 4 5 6
6 5 4 4 5 4 4 5 6 6 6 7 6 6 7 7 8 9 10 11 9 8 8 10 11 12 13 13 13 13 12 11 9 8 7 6 5 4 3 3 4 5 5
7 6 5 6 6 5 5 5 7 6 6 6 6 6 6 7 7 9 10 9 9 9 9 9 9 9 11 12 12 12 12 11 10 9 8 7 5 5 4 4 5 5 5
7 7 5 6 6 6 7 7 6 8 7 6 5 4 4 6 8 8 8 8 10 10 9 10 8 7 7 11 11 12 12 11 11 10 8 7 6 6 5 5 5 4 5
8 7 7 7 7 7 8 8 7 6 6 7 6 6 4 5 6 8 8 9 10 9 9 10 10 9 7 7 8 11 12 12 11 10 10 8 7 7 6 5 4 5 5
10 9 9 8 9 8 8 9 10 10 8 8 8 7 6 6 5 6 9 9 10 9 9 9 10 10 9 7 8 10 10 11 11 11 10 9 8 8 6 5 5 5 5
11 10 10 10 9 9 10 10 10 9 10 9 9 8 7 4 5 5 6 9 10 11 10 9 10 10 10 8 7 9 10 10 11 10 10 9 8 7 6 5 5 4 4
11 11 11 10 10 9 11 11 10 11 10 10 9 8 8 6 7 6 7 8 8 8 9 9 9 8 10 9 8 9 11 10 11 10 9 9 8 7 6 5 4 4 5
9 12 12 11 11 10 11 11 11 13 11 12 9 9 8 7 8 8 8 10 8 7 9 8 8 8 8 9 9 10 11 11 11 10 8 8 7 7 6 5 4 4 5
9 11 11 11 11 11 11 11 12 12 13 13 12 10 9 8 7 7 7 8 7 5 6 7 8 7 7 8 8 11 11 12 11 9 8 7 6 5 5 4 4 4 5
10 11 12 12 12 12 12 12 11 12 12 13 13 12 9 8 8 7 7 7 7 5 6 7 6 8 7 8 8 12 10 12 11 10 8 7 6 5 4 4 3 3 4
10 12 12 12 12 12 13 12 11 13 12 12 12 13 10 8 8 7 6 8 8 7 8 7 6 8 7 7 9 9 9 11 11 10 9 8 7 6 5 4 3 3 3
11 11 12 13 13 13 13 12 11 12 13 12 10 12 11 8 8 7 7 7 7 7 6 6 5 6 8 6 8 8 8 10 11 11 10 9 8 6 5 4 3 3 4
11 11 11 12 13 13 12 12 12 13 14 13 12 13 13 11 8 7 7 7 7 6 6 4 3 6 8 8 8 7 7 7 7 10 10 9 8 7 6 5 4 4 4
10 11 11 11 12 12 12 13 14 13 14 14 13 13 13 10 11 9 8 9 7 6 6 7 5 5 7 8 8 8 6 5 6 9 9 9 8 7 6 5 4 4 3
10 10 10 11 11 12 12 13 13 13 14 13 13 14 14 13 12 10 10 9 7 6 6 7 6 4 4 6 7 6 6 5 4 6 8 8 8 7 6 5 4 3 3
9 10 10 10 10 11 12 12 12 12 12 12 13 13 14 14 13 13 10 10 8 8 8 7 6 6 5 6 6 6 6 5 4 4 5 5 6 7 7 6 5 4 3
9 9 8 8 8 9 9 10 10 11 11 11 12 13 14 14 14 12 10 11 10 8 7 7 7 6 6 7 7 6 6 5 4 4 4 4 4 4 4 5 5 4 3
8 7 7 7 8 7 9 11 10 9 10 11 11 12 12 13 13 14 14 14 13 12 11 9 7 9 9 9 7 7 7 6 4 4 4 3 3 3 3 2 3 4 3
7 7 6 7 7 6 9 11 10 8 9 9 10 10 9 10 12 11 12 12 11 12 12 10 10 10 10 10 10 9 8 6 4 5 4 3 3 3 2 2 5 4 3
6 6 6 6 6 6 8 9 8 8 8 9 10 10 10 11 10 11 11 10 10 9 9 9 8 9 8 9 9 8 8 6 5 3 3 3 2 2 1 2 5 4 3
5 5 5 6 5 5 6 6 6 5 6 7 8 9 10 11 12 13 12 11 9 7 6 7 7 8 11 11 10 8 8 6 4 3 2 2 2 1 1 2 3 3 3
5 5 6 5 5 4 5 6 5 4 5 5 6 8 11 12 14 14 13 12 11 9 9 8 8 9 9 11 11 8 8 7 5 4 4 3 3 2 1 1 1 1 2
Wind_Direction
254 240 232 220 220 216 215 214 215 213 209 203 201 200 198 197 194 190 174 179 194 196 193 188 183 181 180 177 173 171 167 164 161 156 156 155 146 126 87 25 3 354 348
249 247 238 229 224 222 220 221 221 214 211 206 203 203 201 200 200 194 186 180 190 199 198 193 189 187 187 183 178 177 174 171 170 171 175 178 180 191 230 334 336 336 336
245 243 246 237 226 225 225 222 222 217 209 208 206 204 202 202 201 198 192 190 189 195 200 199 196 192 190 188 185 182 179 178 179 184 188 193 201 204 235 299 316 324 326
246 241 239 243 229 222 223 221 220 217 210 207 206 203 201 199 202 201 196 196 194 192 193 196 196 194 193 193 191 186 184 186 187 191 197 205 209 221 252 281 301 311 320
248 245 237 242 230 221 220 224 219 216 212 208 207 205 202 201 199 200 200 199 197 193 190 183 190 194 195 197 195 193 190 190 193 197 204 211 213 228 252 277 295 305 313
249 244 239 239 234 224 218 221 222 215 215 208 206 209 206 206 203 202 200 197 197 195 193 188 188 189 193 197 198 198 196 195 197 201 207 210 214 227 249 272 288 298 306
248 245 241 232 231 228 221 218 220 214 211 200 202 204 211 211 213 206 200 197 198 196 195 194 194 192 190 195 199 201 203 201 203 205 209 209 218 228 243 262 281 289 299
244 242 241 234 228 230 225 219 215 218 214 201 201 192 197 205 213 211 204 202 199 195 197 197 196 195 193 194 190 198 205 206 207 208 208 211 219 226 238 252 268 284 299
245 242 238 237 232 228 224 219 213 214 212 212 210 204 197 203 181 200 207 204 199 197 197 196 199 198 195 196 189 191 200 210 212 211 211 212 219 228 236 247 265 283 298
248 242 238 233 232 232 226 220 218 216 211 211 214 224 228 205 188 182 198 204 202 203 200 194 198 199 196 197 193 186 189 202 211 215 214 215 222 229 236 244 262 276 296
245 240 236 233 230 233 231 224 219 218 214 214 214 214 218 217 212 196 193 193 199 204 203 199 197 197 197 199 198 188 184 194 204 211 215 217 222 228 234 240 256 276 292
243 238 237 234 231 231 232 227 220 218 219 220 219 217 213 207 204 203 198 193 196 197 198 199 199 197 196 197 194 178 183 193 201 205 207 213 220 225 233 242 251 275 290
245 238 235 234 232 229 229 229 222 220 220 220 219 219 221 219 214 208 198 193 194 190 194 202 202 195 194 196 187 177 187 193 196 197 196 199 207 219 230 236 253 274 293
245 245 238 235 233 230 229 227 222 221 219 221 220 220 223 218 215 212 201 191 190 197 199 197 194 195 192 196 183 180 187 188 191 190 189 188 189 196 210 225 247 273 294
247 244 242 237 233 231 228 227 221 219 218 219 218 219 220 217 212 215 207 200 194 197 204 198 189 189 186 189 175 186 188 181 186 184 182 182 181 185 197 215 235 262 287
251 246 246 238 233 230 228 228 223 218 217 218 215 216 215 214 209 208 206 209 209 202 206 194 190 178 173 179 178 185 184 171 180 184 183 182 183 186 193 203 219 247 274
257 249 246 244 234 228 226 228 223 217 216 216 213 214 213 208 205 205 204 205 207 198 194 189 181 175 174 178 173 179 180 182 178 180 184 184 187 187 192 202 218 240 265
258 252 247 246 238 228 226 227 221 216 216 213 211 211 210 204 203 203 201 201 200 195 185 181 178 168 180 178 174 174 174 180 179 170 179 184 186 188 193 203 219 238 264
262 256 249 246 239 230 227 228 220 215 215 212 210 210 207 202 201 201 198 198 193 186 176 174 175 164 158 165 164 165 167 167 164 166 174 182 184 190 196 202 214 230 249
272 264 253 247 240 234 228 226 220 215 214 212 212 210 206 204 201 198 196 193 188 180 171 166 165 161 155 161 162 164 166 168 167 167 175 180 185 193 199 202 209 215 227
276 270 258 250 243 233 223 221 216 213 212 211 212 208 207 203 202 199 194 188 184 180 173 168 170 165 164 167 175 170 170 159 162 170 172 176 181 192 197 198 198 204 220
279 276 264 260 248 235 226 223 221 212 210 211 209 203 200 197 195 194 195 192 190 186 180 178 181 179 180 177 169 165 157 160 173 169 172 179 182 193 192 187 185 204 216
280 274 270 268 254 244 224 216 221 215 210 212 206 196 195 193 191 188 182 181 192 193 191 188 186 184 180 177 169 167 170 169 160 150 160 173 183 198 180 175 180 198 214
274 275 275 271 260 243 221 213 216 216 211 212 202 194 191 190 189 181 177 182 189 190 189 190 190 182 173 165 168 165 153 125 98 129 161 164 171 186 168 176 175 194 205
280 280 275 271 262 245 222 216 224 210 208 210 199 192 186 184 176 171 172 174 172 171 153 146 147 144 140 145 147 140 144 144 144 155 171 152 144 145 178 183 163 183 195
276 279 278 276 262 245 228 221 235 213 208 204 189 183 179 178 174 173 174 170 169 167 155 142 134 129 137 139 144 155 159 159 147 156 166 152 144 146 160 171 167 180 181